Regional Weather Roundup
Issued by NWS Cleveland, OH

Home | Current Version | Previous Version | Graphics & Text | Print | Product List | Glossary On
Versions: 1 2 3 4 5 6 7 8 9 10 11 12 13 14 15 16 17 18 19 20 21 22 23 24 25 26 27 28 29 30 31 32 33 34 35 36 37 38 39 40 41 42 43 44 45 46 47 48 49 50
000
ASUS41 KCLE 192310
RWRCLE
OHIO REGIONAL WEATHER ROUNDUP
NATIONAL WEATHER SERVICE CLEVELAND, OH
700 PM EDT FRI SEP 19 2014

NOTE: "FAIR" INDICATES FEW OR NO CLOUDS BELOW 12,000 FEET WITH NO
SIGNIFICANT WEATHER AND/OR OBSTRUCTIONS TO VISIBILITY.

OHZ001>008-015>018-024>027-034-035-043-044-200000-
   NORTHWEST OHIO

CITY           SKY/WX    TMP DP  RH WIND       PRES   REMARKS
DEFIANCE       CLEAR     69  46  43 SE3       30.09F
FINDLAY        CLEAR     68  46  45 S6        30.09F
TOLEDO EXPRESS CLEAR     63  52  67 E7        30.09F
TOLEDO EXEC    PTCLDY    63  53  70 E7        30.11F
LIMA           CLEAR     68  48  48 SE5       30.10F
$$

OHZ009>014-019>023-028>033-038-089-200000-
   NORTHEAST OHIO

CITY           SKY/WX    TMP DP  RH WIND       PRES   REMARKS
CLE-HOPKINS    PTCLDY    64  54  69 N7        30.14F
CLE-LAKEFRONT  CLEAR     65  56  72 N8        30.12F
CUY CO. ARPT   MOCLDY    66  52  59 SE8       30.14F
LORAIN-ELYRIA  CLEAR     67  54  63 NE6       30.13S
ASHTABULA      CLEAR     62  54  74 E5        30.15F
AKRON-CANTON   PTCLDY    69  50  50 SE8       30.14S
WOOSTER        CLEAR     66  51  58 SE5       30.14F
MANSFIELD      CLEAR     66  47  50 SE5       30.14S
YOUNGSTOWN     MOCLDY    65  54  67 SE5       30.15S
$$

OHZ042-051>053-060>062-070>072-077>081-200000-
  SOUTHWEST OHIO

CITY           SKY/WX    TMP DP  RH WIND       PRES   REMARKS
CINC-COVINGTON PTCLDY    72  49  44 SE6       30.08S
CINC-LUNKEN    CLEAR     72  55  55 E3        30.09R
HAMILTON       CLEAR     70  51  51 E5        30.09F
DAYTON         PTCLDY    70  48  45 SE6       30.11S
WRIGHT-PAT AFB MOCLDY    72  47  41 E1        30.09F
DAYTON GENERAL CLEAR     71  48  43 CALM      30.09S
WILMINGTON     CLEAR     71  48  43 E3        30.10R
$$

OHZ036-037-039>041-045>050-054>059-063>069-073>076-082>088-200000-
  CENTRAL AND SOUTHEAST OHIO

CITY           SKY/WX    TMP DP  RH WIND       PRES   REMARKS
COLUMBUS       PTCLDY    73  50  44 NE7       30.10F
OSU AIRPORT    CLEAR     69  49  48 E5        30.10F
BOLTON FIELD   CLEAR     70  52  52 NE3       30.11S
RICKENBACK AFB CLEAR     71  51  49 NE7       30.09F
NEWARK         CLEAR     69  52  54 E5        30.11S
MARION         CLEAR     67  45  45 S6        30.12S
LANCASTER      CLEAR     72  52  49 SE6       30.10F
ZANESVILLE     CLEAR     73  51  46 CALM      30.12S
NEW PHILLY     CLEAR     70  55  59 CALM      30.13F
$$



USA.gov is the U.S. government's official web portal to all federal, state and local government web resources and services.